, TX

(GMT )
Midland

Weather History for KMAF - October, 2012

Change the Weather History Date:

Friday, October 26, 2012

  Actual Average Record
Temperature  
Mean Temperature 49 °F 62 °F  
Max Temperature 57 °F 75 °F 90 °F (1950)
Min Temperature 40 °F 48 °F 33 °F (1932)
Degree Days  
Heating Degree Days 16 5  
Month to date heating degree days 70 69  
Since 1 July heating degree days 81 80  
Cooling Degree Days 0 1  
Month to date cooling degree days 111 89  
Year to date cooling degree days 2900 2268  
Moisture  
Dew Point 29 °F    
Average Humidity 50    
Maximum Humidity 70    
Minimum Humidity 29    
Precipitation  
Precipitation 0.00 in 0.04 in 0.43 in (1984)
Month to date precipitation 0.12 1.54  
Year to date precipitation 12.72 13.12  
Snow  
Snow 0.00 in - - ()
Month to date snowfall 0.0  
Since 1 July snowfall 0.0  
Since 1 September snowfall 0.0  
Snow Depth 0.00 in    
Sea Level Pressure  
Sea Level Pressure 30.24 in    
Wind  
Wind Speed 15 mph (NE)    
Max Wind Speed 23 mph    
Max Gust Speed 29 mph    
Visibility 10 miles    
Events      
T = Trace of Precipitation, MM = Missing Value Source: NWS Daily Summary

Daily Weather History Graph

Daily Weather History Graph

Search for Another Location

Airport or City:

Trip Planner

Search our weather history database for the weather conditions in past years. The results will help you decide how hot, cold, wet, or windy it might be!

Date:

Astronomy

Oct. 26, 2012 Rise Set
Actual Time 8:00 AM CDT 7:04 PM CDT
Civil Twilight 7:35 AM CDT 7:29 PM CDT
Nautical Twilight 7:07 AM CDT 7:57 PM CDT
Astronomical Twilight 6:38 AM CDT 8:26 PM CDT
Moon 5:13 PM CDT (10/26) 5:08 AM CDT (10/26)
Length of Visible Light 11h 53m
Length of Day
11h 03m
Waxing Gibbous, 91% of the Moon is Illuminated
Oct 26
Waxing Gibbous
Oct 29
Full
Nov 6
Last Quarter
Nov 13
New
Nov 20
First Quarter

Hourly Weather History & Observations

Time (CDT) Temp. Windchill Dew Point Humidity Pressure Visibility Wind Dir Wind Speed Gust Speed Precip Events Conditions
12:53 AM 48.9 °F - 35.1 °F 59% 30.09 in 10.0 mi NE 13.8 mph 23.0 mph N/A   Clear
1:53 AM 46.9 °F - 35.1 °F 63% 30.11 in 10.0 mi NE 16.1 mph - N/A   Clear
2:53 AM 46.0 °F 39.6 °F 34.0 °F 63% 30.12 in 10.0 mi NE 15.0 mph 23.0 mph N/A   Clear
3:53 AM 45.0 °F 37.1 °F 34.0 °F 65% 30.13 in 10.0 mi NE 19.6 mph 25.3 mph N/A   Clear
4:53 AM 44.1 °F 36.8 °F 33.1 °F 65% 30.14 in 10.0 mi NE 16.1 mph - N/A   Scattered Clouds
5:53 AM 43.0 °F 35.1 °F 32.0 °F 65% 30.17 in 10.0 mi NNE 17.3 mph 24.2 mph N/A   Scattered Clouds
6:53 AM 42.1 °F 34.2 °F 32.0 °F 67% 30.19 in 10.0 mi NE 16.1 mph - N/A   Clear
7:53 AM 41.0 °F 34.3 °F 32.0 °F 70% 30.28 in 10.0 mi NNE 11.5 mph - N/A   Clear
8:53 AM 42.1 °F 34.2 °F 32.0 °F 67% 30.26 in 10.0 mi NNE 16.1 mph - N/A   Clear
9:53 AM 44.1 °F 35.9 °F 32.0 °F 63% 30.28 in 10.0 mi NNE 19.6 mph - N/A   Clear
10:53 AM 46.0 °F 38.5 °F 30.9 °F 56% 30.31 in 10.0 mi NNE 19.6 mph - N/A   Scattered Clouds
11:53 AM 48.9 °F - 30.9 °F 50% 30.31 in 10.0 mi NNE 17.3 mph 26.5 mph N/A   Partly Cloudy
12:53 PM 51.1 °F - 30.9 °F 46% 30.30 in 10.0 mi NNE 13.8 mph - N/A   Partly Cloudy
1:53 PM 54.0 °F - 30.9 °F 41% 30.27 in 10.0 mi NNE 11.5 mph 20.7 mph N/A   Scattered Clouds
2:53 PM 55.9 °F - 30.9 °F 39% 30.25 in 10.0 mi North 13.8 mph - N/A   Clear
3:53 PM 55.9 °F - 28.9 °F 36% 30.22 in 10.0 mi NE 13.8 mph 19.6 mph N/A   Clear
4:53 PM 57.0 °F - 28.0 °F 33% 30.22 in 10.0 mi NE 12.7 mph - N/A   Clear
5:53 PM 55.0 °F - 24.1 °F 30% 30.22 in 10.0 mi NE 17.3 mph - N/A   Clear
6:53 PM 53.1 °F - 23.0 °F 31% 30.24 in 10.0 mi NE 16.1 mph - N/A   Clear
7:53 PM 51.1 °F - 21.9 °F 32% 30.28 in 10.0 mi ENE 12.7 mph - N/A   Clear
8:53 PM 50.0 °F - 21.0 °F 32% 30.30 in 10.0 mi ENE 13.8 mph - N/A   Overcast
9:53 PM 50.0 °F - 21.0 °F 32% 30.31 in 10.0 mi ENE 16.1 mph - N/A   Overcast
10:53 PM 48.9 °F - 21.9 °F 35% 30.32 in 10.0 mi ENE 12.7 mph - N/A   Overcast
11:53 PM 46.9 °F - 21.0 °F 36% 30.32 in 10.0 mi ENE 15.0 mph - N/A   Overcast